User: anonymous
Location: Unspecified
(0.0000°N, 0.0000°E)
Time: 06:16:06
(UTC+02:00)
Language:

AO-40 - Orbit

View from above orbital plane
View from above orbital plane
View from above satellite
View from above satellite

Ground track
Ground track

The orbit data is extracted from the following two-line orbital elements,

1 26609U 00072B   14243.76734585 -.00000323  00000-0  00000+0 0   204
2 26609 008.3646 035.5809 7943628 145.1494 311.7886 01.25585015 63521
Epoch (UTC): 31 August 2014 18:24:58
Eccentricity: 0.7943628
inclination: 8.3646°
perigee height: 1084 km
apogee height: 58737 km
right ascension of ascending node: 35.5809°
argument of perigee: 145.1494°
revolutions per day: 1.25585015
mean anomaly at epoch: 311.7886°
orbit number at epoch: 6352

The dashed part of the orbit path shows where the satellite is in the earth's shadow,  

DLR